Location: Fauquembergues
(50.6005°N, 2.0987°E)
Time: 08:06:49
(UTC+00:00)

Cosmos 540 Rocket - Pass Details

Date: 14 July 2020
Orbit: 740 x 754 km, 74.1° (Epoch: 15 August)

Event Time Altitude Azimuth Distance (km) Brightness Sun altitude
Rises 02:48:54 0° 337° (NNW) 3,199 7.1 -8.5°
Reaches altitude 10° 02:51:18 10° 341° (NNW) 2,273 6.4 -8.3°
Maximum altitude 02:56:25 61° 62° (ENE) 849 4.1 -7.7°
Drops below altitude 10° 03:01:30 10° 143° (SE) 2,267 5.8 -7.2°
Sets 03:03:53 0° 147° (SSE) 3,189 6.6 -6.9°
